Flag for India Weather past 2 weeks in Dharamshala, Himachal Pradesh, India

Now
61 °F

Fog.


Feels Like: 61 °F
Forecast: 51 / 75 °F
Wind: No wind

Location: Amritsar Airport

Current Time: Mar 27, 2015 at 5:29:13 AM

Latest Report: Mar 27, 2015 at 4:30 AM


Visibility: 1 mi

Pressure: 29.98 "Hg

Humidity: 94%

Dew point: 59 °F

Location of DharamshalaLocation

Historic Weather in Dharamshala — Graph

°F

Dharamshala temperature yesterday

Maximum temperature yesterday: 86 °F (at 2:00 PM)
Minimum temperature yesterday: 57 °F (at 6:00 AM)
Average temperature yesterday: 73 °F

Past Weeks' High & Low Weather Summary

 TemperatureHumidityPressure
High86 °F (Mar 23, 2:30 PM)100% (Mar 12, 2:30 AM)30.15 "Hg (Mar 12, 2:30 AM)
Low48 °F (Mar 13, 5:30 AM)34% (Mar 12, 4:00 PM)29.80 "Hg (Mar 23, 5:00 PM)
Average67 °F79%29.99 "Hg
* Reported Mar 12 2:30 AM — Mar 27 3:00 AM, Dharamshala, Weather by CustomWeather, © 2015

Note: Actual official high and low records may vary slightly from our data, if they occured in-between our weather recording intervals... More about our weather records

Advertising

Dharamshala weather history for previous 24 hours

 ConditionsComfort  
Time TempWeatherWind HumidityBarometerVisibility
3:00 AM
Fri, Mar 27
63 °FFog.No wind94%29.98 "Hg1 mi
2:00 AM64 °FFog.3 mph94%29.98 "Hg1 mi
1:00 AM66 °FFog.No wind88%30.01 "Hg1 mi
12:00 AM66 °FFog.No wind88%30.01 "Hg1 mi
11:00 PM
Thu, Mar 26
68 °FFog.6 mph88%30.01 "Hg1 mi
8:00 PM75 °FFog.No wind74%29.95 "Hg2 mi
7:00 PM81 °FScattered clouds.No wind62%29.95 "Hg2 mi
6:30 PM81 °FScattered clouds.No wind62%29.95 "Hg2 mi
6:00 PM81 °FScattered clouds.1 mph66%29.95 "Hg2 mi
5:30 PM82 °FScattered clouds.No wind58%29.95 "Hg2 mi
5:00 PM84 °FScattered clouds.1 mph45%29.95 "Hg2 mi
3:30 PM84 °FScattered clouds.6 mph45%29.95 "Hg2 mi
3:00 PM86 °FBroken clouds.5 mph46%29.98 "Hg3 mi
2:00 PM86 °FBroken clouds.6 mph49%29.98 "Hg3 mi
12:30 PM84 °FBroken clouds.2 mph48%30.01 "Hg3 mi
12:00 PM84 °FScattered clouds.5 mph48%30.01 "Hg2 mi
11:30 AM82 °FScattered clouds.2 mph55%30.01 "Hg2 mi
10:00 AM77 °FPartly sunny.No wind74%30.04 "Hg2 mi
9:00 AM70 °FFog.No wind88%30.01 "Hg2 mi
6:00 AM57 °FFog.2 mph100%29.98 "Hg2 mi
5:30 AM59 °FFog.No wind100%29.95 "Hg2 mi
5:00 AM59 °FFog.No wind94%29.95 "Hg2 mi
Weather by CustomWeather, © 2015

See weather overviewHow to use our weather pages